Time,TemperatureF,DewpointF,PressureIn,WindDirection,WindDirectionDegrees,WindSpeedMPH,WindSpeedGustMPH,Humidity,HourlyPrecipIn,Conditions,Clouds,dailyrainin,SoftwareType,DateUTC
2013-02-02 14:55:00,18.9,12.9,28.86,South,177,5.0,15.0,77,0.00,CLR,CLR,0.00,WeatherDisplay:10.37,2013-02-02 19:55:00,
2013-02-02 15:02:00,19.0,13.3,28.86,North,0,3.5,0.0,78,0.00,CLR,,0.00,WeatherDisplay:10.37,2013-02-02 20:02:00,
2013-02-02 15:07:00,19.0,13.6,28.86,SSW,202,5.8,5.8,79,0.00,CLR,,0.00,WeatherDisplay:10.37,2013-02-02 20:07:00,
2013-02-02 15:09:00,19.0,13.6,28.86,South,180,5.8,5.8,79,0.00,CLR,,0.00,WeatherDisplay:10.37,2013-02-02 20:09:00,
2013-02-02 15:13:00,18.7,13.0,28.86,South,180,6.8,6.8,78,0.00,CLR,,0.00,WeatherDisplay:10.37,2013-02-02 20:13:00,
2013-02-02 15:18:00,18.7,13.0,28.86,SSW,202,8.1,8.1,78,0.00,CLR,,0.00,WeatherDisplay:10.37,2013-02-02 20:18:00,
2013-02-02 15:23:00,18.5,13.1,28.86,SSW,202,6.3,6.3,79,0.00,CLR,,0.00,WeatherDisplay:10.37,2013-02-02 20:23:00,
2013-02-02 15:28:00,18.3,13.2,28.86,SSW,202,8.3,8.3,80,0.00,CLR,,0.00,WeatherDisplay:10.37,2013-02-02 20:28:00,
2013-02-02 15:33:00,18.3,13.2,28.86,SSW,202,8.1,8.1,80,0.00,CLR,,0.00,WeatherDisplay:10.37,2013-02-02 20:33:00,
2013-02-02 15:38:00,18.3,13.4,28.86,SE,135,5.8,5.8,81,0.00,CLR,,0.00,WeatherDisplay:10.37,2013-02-02 20:38:00,
2013-02-02 15:43:00,18.1,13.5,28.86,SE,135,8.1,8.1,82,0.00,CLR,,0.00,WeatherDisplay:10.37,2013-02-02 20:43:00,
2013-02-02 15:48:00,18.0,13.4,28.85,South,180,6.9,6.9,82,0.00,CLR,,0.00,WeatherDisplay:10.37,2013-02-02 20:48:00,
2013-02-02 15:53:00,18.0,13.4,28.85,NW,315,6.9,6.9,82,0.00,CLR,,0.00,WeatherDisplay:10.37,2013-02-02 20:53:00,
2013-02-02 15:58:00,18.0,13.2,28.85,SSW,202,9.2,9.2,81,0.00,CLR,,0.00,WeatherDisplay:10.37,2013-02-02 20:58:00,
2013-02-02 16:03:00,18.0,13.2,28.85,SSE,158,6.9,6.9,81,0.00,CLR,,0.00,WeatherDisplay:10.37,2013-02-02 21:03:00,
2013-02-02 16:08:00,18.0,12.9,28.85,South,180,6.9,6.9,80,0.00,CLR,,0.00,WeatherDisplay:10.37,2013-02-02 21:08:00,
2013-02-02 16:13:00,18.1,13.0,28.85,ESE,112,5.8,5.8,80,0.00,CLR,,0.00,WeatherDisplay:10.37,2013-02-02 21:13:00,
2013-02-02 16:18:00,18.1,13.0,28.85,ESE,112,5.8,5.8,80,0.00,CLR,,0.00,WeatherDisplay:10.37,2013-02-02 21:18:00,
2013-02-02 16:23:00,18.3,13.2,28.85,South,180,5.8,5.8,80,0.00,CLR,,0.00,WeatherDisplay:10.37,2013-02-02 21:23:00,
2013-02-02 16:28:00,18.3,13.2,28.85,SSE,158,5.8,5.8,80,0.00,CLR,,0.00,WeatherDisplay:10.37,2013-02-02 21:28:00,
2013-02-02 16:33:00,18.3,13.4,28.85,SSW,202,4.7,4.7,81,0.00,CLR,,0.00,WeatherDisplay:10.37,2013-02-02 21:33:00,
2013-02-02 16:38:00,18.3,13.4,28.85,SSW,202,4.6,4.6,81,0.00,CLR,,0.00,WeatherDisplay:10.37,2013-02-02 21:38:00,
2013-02-02 16:43:00,18.3,13.4,28.85,SSE,158,5.8,5.8,81,0.00,CLR,,0.00,WeatherDisplay:10.37,2013-02-02 21:43:00,
2013-02-02 16:48:00,18.1,13.5,28.85,SSW,202,4.7,4.7,82,0.00,CLR,,0.00,WeatherDisplay:10.37,2013-02-02 21:48:00,
2013-02-02 16:53:00,18.1,13.3,28.85,SW,225,5.8,5.8,81,0.00,CLR,,0.00,WeatherDisplay:10.37,2013-02-02 21:53:00,
2013-02-02 16:58:00,18.1,13.3,28.85,SSW,202,4.6,4.6,81,0.00,CLR,,0.00,WeatherDisplay:10.37,2013-02-02 21:58:00,
2013-02-02 17:03:00,18.1,13.3,28.86,South,180,5.8,5.8,81,0.00,CLR,,0.00,WeatherDisplay:10.37,2013-02-02 22:03:00,
2013-02-02 17:08:00,18.1,12.7,28.86,SSE,158,8.3,8.3,79,0.00,CLR,,0.00,WeatherDisplay:10.37,2013-02-02 22:08:00,